Weather observations for the past three days for
Akhiok
| Date | Time (akdt) | Wind (kph) | Vis. (km) | Weather | Sky Cond. | Temperature (ºC) | Relative Humidity | Wind Chill (°C) | Heat Index (°C) | Pressure | Precipitation (cm) | ||||||
|---|---|---|---|---|---|---|---|---|---|---|---|---|---|---|---|---|---|
| Air | Dwpt | 6 hour | altimeter (cm) | sea level (mb) | 1 hr | 3 hr | 6 hr | ||||||||||
| Max. | Min. | ||||||||||||||||
| 04 | 00:56 | E 19 | 0.00 | Overcast | OVC007 | 0 | 0 | 0% | 75.9 | 0.0 | |||||||
| 03 | 23:56 | E 19 | 0.00 | Overcast | OVC009 | 0 | 0 | 0% | 75.92 | 0.0 | |||||||
| 03 | 22:56 | E 22 | 0.00 | Overcast | OVC011 | 0 | 0 | 0% | 75.9 | 0.0 | |||||||
| 03 | 21:56 | E 15 | 0.00 | Overcast | OVC011 | 0 | 0 | 0% | 75.9 | 0.0 | |||||||
| 03 | 20:56 | E 19 | 0.00 | Overcast | OVC011 | 0 | 0 | 0% | 75.9 | 0.0 | |||||||
| 03 | 19:56 | E 17 | 0.00 | Overcast | OVC013 | 0 | 0 | 0% | 75.92 | 0.0 | |||||||
| 03 | 18:56 | E 19 | 0.00 | Overcast | OVC015 | 0 | 0 | 0% | 75.92 | 0.0 | |||||||
| 03 | 17:56 | E 15 | 0.00 | Overcast | OVC017 | 0 | 0 | 0% | 75.95 | 0.0 | |||||||
| 03 | 16:56 | E 11 | 0.00 | Overcast | OVC015 | 0 | 0 | 0% | 75.97 | 0.0 | |||||||
| 03 | 15:56 | E 11 | 0.00 | Overcast | OVC018 | 0 | 0 | 0% | 76 | 0.0 | |||||||
| 03 | 14:56 | E 6 | 0.00 | Overcast | OVC020 | 0 | 0 | 0% | 76.02 | 0.0 | |||||||
| 03 | 13:56 | E 7 | 0.00 | Overcast | OVC020 | 0 | 0 | 0% | 76.05 | 0.0 | |||||||
| 03 | 12:56 | Calm | 0.00 | Overcast | OVC024 | 0 | 0 | 0% | 76.07 | 0.0 | |||||||
| 03 | 11:56 | Calm | 0.00 | Overcast | OVC024 | 0 | 0 | 0% | 76.1 | 0.0 | |||||||
| 03 | 10:56 | E 6 | 0.00 | Overcast | BKN027 OVC032 | 0 | 0 | 0% | 76.1 | 0.0 | |||||||
| 03 | 09:56 | Calm | 0.00 | Overcast | OVC030 | 0 | 0 | 0% | 76.1 | 0.0 | |||||||
| 03 | 08:56 | Calm | 0.00 | Overcast | OVC028 | 0 | 0 | 0% | 76.12 | 0.0 | |||||||
| 03 | 07:56 | NE 9 | 0.00 | Overcast | FEW030 OVC043 | 0 | 0 | 0% | 76.1 | 0.0 | |||||||
| 03 | 06:56 | Calm | 0.00 | Overcast | BKN045 OVC055 | 0 | 0 | 0% | 76.15 | 0.0 | |||||||
| 03 | 05:56 | Calm | 0.00 | Overcast | OVC040 | 0 | 0 | 0% | 76.15 | 0.0 | |||||||
| 03 | 04:56 | E 9 | 0.00 | Overcast | BKN042 BKN055 OVC070 | 0 | 0 | 0% | 76.17 | 0.0 | |||||||
| 03 | 03:56 | NE 13 | 0.00 | Overcast | OVC035 | 0 | 0 | 0% | 76.2 | 0.0 | |||||||
| 03 | 02:56 | NE 11 | 0.00 | Overcast | BKN030 BKN050 OVC070 | 0 | 0 | 0% | 76.25 | 0.0 | |||||||
| 03 | 01:56 | NE 11 | 0.00 | Overcast | FEW030 BKN037 OVC050 | 0 | 0 | 0% | 76.25 | 0.0 | |||||||
| 03 | 00:56 | NE 7 | 0.00 | Overcast | OVC029 | 0 | 0 | 0% | 76.28 | 0.0 | |||||||
| 02 | 23:56 | Calm | 0.00 | Overcast | BKN045 OVC060 | 0 | 0 | 0% | 76.3 | 0.0 | |||||||
| 02 | 22:56 | Calm | 0.00 | Overcast | FEW040 SCT050 OVC075 | 0 | 0 | 0% | 76.28 | 0.0 | |||||||
| 02 | 21:56 | Calm | 0.00 | Overcast | BKN065 OVC080 | 0 | 0 | 0% | 76.25 | 0.0 | |||||||
| 02 | 20:56 | E 17 | 0.00 | Overcast | FEW029 SCT033 OVC080 | 0 | 0 | 0% | 76.25 | 0.0 | |||||||
| 02 | 19:56 | Vrbl 11 | 0.00 | Mostly Cloudy | BKN031 BKN080 | 0 | 0 | 0% | 76.25 | 0.0 | |||||||
| 02 | 18:56 | SE 7 | 0.00 | Overcast | OVC033 | 0 | 0 | 0% | 76.28 | 0.0 | |||||||
| 02 | 17:56 | SE 9 | 0.00 | Mostly Cloudy | BKN026 BKN037 | 0 | 0 | 0% | 76.28 | 0.0 | |||||||
| 02 | 16:56 | SE 9 | 0.00 | Overcast | OVC022 | 0 | 0 | 0% | 76.3 | 0.0 | |||||||
| 02 | 15:56 | SE 11 | 0.00 | Overcast | OVC022 | 0 | 0 | 0% | 76.33 | 0.0 | |||||||
| 02 | 14:56 | SE 9 | 0.00 | Overcast | BKN018 OVC026 | 0 | 0 | 0% | 76.33 | 0.0 | |||||||
| 02 | 13:56 | SE 9 | 0.00 | Overcast | BKN015 OVC023 | 0 | 0 | 0% | 76.33 | 0.0 | |||||||
| 02 | 12:56 | Vrbl 11 | 0.00 | Overcast | OVC017 | 0 | 0 | 0% | 76.33 | 0.0 | |||||||
| 02 | 11:56 | S 11 | 0.00 | Overcast | BKN013 OVC055 | 0 | 0 | 0% | 76.3 | 0.0 | |||||||
| 02 | 10:56 | S 11 | 0.00 | Mostly Cloudy | FEW010 SCT031 BKN042 | 0 | 0 | 0% | 76.28 | 0.0 | |||||||
| 02 | 09:56 | SE 9 | 0.00 | Overcast | SCT010 BKN028 OVC038 | 0 | 0 | 0% | 76.28 | 0.0 | |||||||
| 02 | 08:56 | E 6 | 0.00 | Overcast | BKN018 OVC040 | 0 | 0 | 0% | 76.25 | 0.0 | |||||||
| 02 | 07:56 | Calm | 0.00 | Overcast | OVC018 | 0 | 0 | 0% | 76.2 | 0.0 | |||||||
| 02 | 06:56 | SW 11 | 0.00 | Overcast | OVC016 | 0 | 0 | 0% | 76.15 | 0.0 | |||||||
| 02 | 05:56 | E 7 | 0.00 | Overcast | OVC031 | 0 | 0 | 0% | 76.1 | 0.0 | |||||||
| 02 | 04:56 | SW 11 | 0.00 | Overcast | OVC025 | 0 | 0 | 0% | 76.1 | 0.0 | |||||||
| 02 | 03:56 | SW 20 | 0.00 | Overcast | OVC023 | 0 | 0 | 0% | 76.05 | 0.0 | |||||||
| 02 | 02:56 | SW 24 G 33 | 0.00 | Overcast | OVC027 | 0 | 0 | 0% | 75.97 | 0.0 | |||||||
| 02 | 01:56 | S 20 G 30 | 0.00 | Overcast | BKN022 OVC028 | 0 | 0 | 0% | 75.9 | 0.0 | |||||||
| 02 | 00:56 | SW 24 G 35 | 0.00 | Overcast | BKN017 OVC027 | 0 | 0 | 0% | 75.79 | 0.0 | |||||||
| 01 | 23:56 | SW 20 G 35 | 0.00 | Overcast | SCT022 OVC027 | 0 | 0 | 0% | 75.69 | 0.0 | |||||||
| 01 | 22:56 | SW 19 | 0.00 | Overcast | SCT016 BKN023 OVC033 | 0 | 0 | 0% | 75.59 | 0.0 | |||||||
| 01 | 21:56 | SW 30 G 43 | 0.00 | Overcast | BKN021 OVC037 | 0 | 0 | 0% | 75.49 | 0.0 | |||||||
| 01 | 20:56 | SW 33 G 50 | 0.00 | Overcast and Breezy | BKN019 OVC032 | 0 | 0 | 0% | 75.39 | 0.0 | |||||||
| 01 | 19:56 | SW 35 G 48 | 0.00 | Mostly Cloudy and Breezy | BKN017 BKN042 | 0 | 0 | 0% | 75.31 | 0.0 | |||||||
| 01 | 18:56 | SW 24 | 0.00 | Overcast | BKN017 BKN023 OVC034 | 0 | 0 | 0% | 75.21 | 0.0 | |||||||
| 01 | 17:56 | SW 30 G 46 | 0.00 | Overcast | BKN015 BKN030 OVC038 | 0 | 0 | 0% | 75.13 | 0.0 | |||||||
| 01 | 16:56 | SW 26 G 35 | 0.00 | Overcast | BKN015 OVC035 | 0 | 0 | 0% | 75.03 | 0.0 | |||||||
| 01 | 15:56 | S 20 G 35 | 0.00 | Overcast | BKN013 OVC020 | 0 | 0 | 0% | 74.98 | 0.0 | |||||||
| 01 | 14:56 | SW 24 G 37 | 0.00 | Overcast | OVC015 | 0 | 0 | 0% | 74.9 | 0.0 | |||||||
| 01 | 13:56 | SW 28 G 39 | 0.00 | Overcast | OVC013 | 0 | 0 | 0% | 74.85 | 0.0 | |||||||
| 01 | 12:56 | SW 24 G 41 | 0.00 | Overcast | OVC009 | 0 | 0 | 0% | 74.78 | 0.0 | |||||||
| 01 | 11:56 | S 19 | 0.00 | Overcast | OVC003 | 0 | 0 | 0% | 74.7 | 0.0 | |||||||
| 01 | 10:56 | SE 7 | 0.00 | Overcast | OVC005 | 0 | 0 | 0% | 74.63 | 0.0 | |||||||
| 01 | 09:56 | SE 7 | 0.00 | Overcast | BKN006 OVC011 | 0 | 0 | 0% | 74.57 | 0.0 | |||||||
| 01 | 08:56 | E 13 | 0.00 | Overcast | OVC006 | 0 | 0 | 0% | 74.57 | 0.0 | |||||||
| 01 | 07:56 | E 13 | 0.00 | Overcast | OVC006 | 0 | 0 | 0% | 74.57 | 0.0 | |||||||
| 01 | 06:56 | E 11 | 0.00 | Overcast | OVC006 | 0 | 0 | 0% | 74.57 | 0.0 | |||||||
| 01 | 05:56 | E 13 | 0.00 | Overcast | OVC008 | 0 | 0 | 0% | 74.6 | 0.0 | |||||||
| 01 | 04:56 | E 13 | 0.00 | Overcast | OVC008 | 0 | 0 | 0% | 74.63 | 0.0 | |||||||
| 01 | 03:56 | E 19 | 0.00 | Overcast | OVC008 | 0 | 0 | 0% | 74.68 | 0.0 | |||||||
| 01 | 02:56 | E 22 G 33 | 0.00 | Overcast | OVC008 | 0 | 0 | 0% | 74.75 | 0.0 | |||||||
| 01 | 01:56 | SE 22 | 0.00 | Overcast | OVC008 | 0 | 0 | 0% | 74.85 | 0.0 | |||||||
| Date | Time (akdt) | Wind (kph) | Vis. (km) | Weather | Sky Cond. | Air | Dwpt | Max. | Min. | Relative Humidity | Wind Chill (°C) | Heat Index (°C) | altimeter (cm) | sea level (mb) | 1 hr | 3 hr | 6 hr |
| 6 hour | |||||||||||||||||
| Temperature (ºC) | Pressure | Precipitation (cm) | |||||||||||||||